Temp
61 62 61 62 63 63 63 63 62 62 62 61 62 61 61 61 60 53 50 60 60 66 66 58 58 58 58 54 54 51 45 41 45 45 50 54 54 58 57 58 59 62 61 60 57
60 60 61 61 61 62 63 62 62 62 62 61 61 61 61 61 51 49 61 66 67 67 58 57 54 56 53 52 51 48 42 46 49 48 49 52 52 53 56 54 57 59 57 55 56
60 60 60 60 60 61 61 62 62 62 61 61 61 61 61 57 48 53 66 66 67 65 59 58 57 56 50 51 50 47 44 46 50 51 51 51 51 53 52 53 56 58 58 53 54
59 59 59 60 60 60 60 61 62 61 61 61 61 61 60 52 43 56 66 67 67 61 59 56 54 50 47 47 51 46 48 48 52 51 50 50 52 52 52 57 58 57 58 53 53
59 59 59 59 60 60 60 60 61 61 61 61 61 61 53 46 49 59 64 64 59 58 56 53 51 49 46 48 50 46 48 50 51 51 50 50 50 51 51 55 55 54 54 54 54
59 58 58 58 59 60 60 60 60 61 61 61 61 60 49 43 57 59 58 57 57 54 53 54 53 53 49 48 49 50 48 50 52 51 50 49 49 48 54 52 52 51 52 53 54
59 59 57 58 58 59 59 59 59 60 61 61 61 56 47 48 56 57 58 56 57 55 51 54 56 52 50 47 51 50 46 48 49 49 50 48 48 46 54 52 53 53 52 52 53
58 58 58 57 58 58 58 58 58 59 60 61 61 50 43 57 55 56 57 55 56 57 55 56 56 54 50 50 49 45 45 40 47 49 49 49 46 50 51 49 53 53 53 53 53
58 57 58 57 57 57 57 58 58 59 59 60 53 50 44 58 52 57 56 54 55 55 56 61 54 48 48 43 39 40 38 38 46 49 47 46 46 49 49 50 52 53 54 54 53
58 58 58 58 57 57 57 58 58 57 57 58 57 46 49 48 52 54 57 55 52 52 52 50 45 40 38 39 32 37 37 39 40 44 44 42 44 51 52 51 53 54 54 53 52
57 57 57 57 57 57 53 49 48 46 49 46 47 47 49 52 56 52 55 54 52 48 40 44 39 34 39 42 40 40 38 38 41 43 42 42 44 50 52 50 51 53 53 52 51
56 57 57 57 58 58 51 43 46 47 41 48 49 49 54 55 47 50 55 48 45 38 42 38 34 42 43 44 42 39 37 38 43 44 43 42 43 51 49 50 51 52 51 50 48
56 56 56 56 57 52 48 46 53 51 41 45 47 47 50 53 48 46 51 47 42 38 37 35 40 44 43 39 39 37 37 38 40 42 41 39 41 46 46 47 47 48 48 47 47
56 56 55 55 49 45 45 51 49 51 35 37 40 45 48 51 43 54 53 49 42 38 38 39 42 40 38 38 40 34 41 42 41 39 34 38 33 42 44 46 47 48 46 45 45
54 55 55 55 46 42 47 52 49 48 14 38 40 52 47 46 44 43 52 49 39 39 41 37 37 38 36 38 43 38 40 40 39 37 35 34 34 40 41 46 47 47 46 45 45
54 54 55 49 48 48 51 48 46 29 17 31 40 39 40 45 41 43 45 52 48 41 39 38 41 41 41 41 44 41 39 37 34 34 21 34 35 35 42 47 46 46 45 45 44
53 54 52 49 43 50 50 44 26 20 34 29 35 39 41 40 40 41 39 39 36 31 30 36 37 40 42 38 39 38 36 21 21 17 22 30 31 40 44 47 48 47 45 44 44
53 52 51 49 49 49 44 33 20 25 30 34 36 39 36 41 41 40 37 35 42 35 29 30 26 37 41 41 37 35 37 27 21 20 26 31 30 39 43 45 48 48 47 44 43
52 45 44 46 49 48 36 24 24 29 37 33 36 33 34 40 40 39 36 35 38 39 37 29 32 37 39 42 44 36 33 38 26 15 22 29 34 43 41 43 44 45 44 43 43
41 40 40 48 48 42 30 27 30 37 39 36 31 35 31 34 34 37 35 41 37 43 40 36 29 33 37 41 41 39 42 32 28 19 18 25 29 37 40 41 42 43 43 43 43
39 31 40 47 45 35 25 27 31 37 37 36 33 33 36 35 35 35 34 38 44 40 43 35 33 29 35 34 34 35 33 36 36 31 24 19 31 39 45 43 43 43 43 43 43
35 26 40 44 30 31 27 30 38 34 41 36 35 36 37 39 35 35 36 38 45 43 37 37 33 23 29 35 37 36 37 39 33 25 23 26 30 39 41 42 43 43 43 43 43
30 29 39 39 23 25 29 30 35 35 36 36 34 36 37 36 32 39 41 40 40 42 40 41 32 23 27 32 33 31 35 40 36 33 26 26 37 38 38 40 41 41 41 42 42
31 23 31 33 33 28 26 28 28 35 36 40 36 35 33 34 38 33 38 38 40 43 46 47 28 36 31 33 34 29 32 37 39 34 35 31 37 37 37 38 39 40 40 40 39
30 26 30 25 27 29 30 27 27 27 33 38 33 34 32 31 33 33 39 36 37 43 42 41 34 30 26 31 34 35 36 35 34 41 35 39 32 40 40 39 37 40 39 37 35
27 26 28 23 31 27 29 27 27 29 30 29 31 33 32 29 35 35 36 35 34 38 41 37 26 26 24 25 30 28 36 35 36 39 40 29 30 40 39 38 38 38 37 37 37
33 33 30 27 28 26 26 29 30 33 32 32 34 33 31 34 37 33 35 35 36 36 37 34 29 26 27 24 30 28 32 34 36 40 41 32 45 40 37 40 41 40 40 40 39
MSLP
1018.46 1018.08 1017.92 1017.69 1017.57 1017.44 1017.51 1017.51 1017.53 1017.73 1017.74 1017.45 1017.42 1017.44 1017.34 1017.14 1016.92 1017.06 1016.37 1014.80 1014.87 1014.72 1014.93 1015.33 1015.30 1015.45 1015.78 1016.45 1016.83 1017.20 1017.91 1017.87 1016.79 1016.30 1014.74 1014.18 1013.96 1013.57 1013.70 1013.72 1013.61 1013.61 1014.10 1014.75 1015.21
1018.62 1018.39 1018.22 1017.96 1017.74 1017.51 1017.38 1017.37 1017.35 1017.49 1017.60 1017.47 1017.37 1017.39 1017.27 1017.18 1017.04 1016.40 1014.92 1014.57 1014.52 1014.66 1015.08 1015.36 1015.66 1015.71 1016.21 1016.57 1017.01 1017.24 1017.79 1016.90 1015.82 1015.40 1014.85 1014.36 1014.22 1013.99 1013.90 1013.96 1013.87 1013.90 1014.45 1015.10 1015.54
1018.80 1018.63 1018.32 1018.09 1017.89 1017.78 1017.42 1017.36 1017.24 1017.28 1017.32 1017.33 1017.30 1017.26 1017.23 1017.18 1016.97 1015.03 1014.47 1014.43 1014.39 1014.59 1014.92 1015.22 1015.55 1015.72 1016.18 1016.50 1016.86 1017.09 1017.04 1016.28 1015.42 1015.09 1014.89 1014.70 1014.35 1014.20 1014.18 1014.00 1013.75 1013.90 1014.29 1015.12 1015.69
1018.86 1018.66 1018.41 1018.19 1018.03 1017.85 1017.63 1017.32 1017.15 1017.17 1017.24 1017.13 1017.13 1017.07 1017.16 1017.19 1016.46 1014.71 1014.38 1014.33 1014.32 1014.61 1015.00 1015.41 1015.76 1015.99 1016.27 1016.34 1016.38 1016.77 1016.23 1016.09 1015.49 1015.22 1015.02 1014.98 1014.62 1014.45 1014.17 1013.26 1013.03 1013.49 1014.00 1014.85 1015.37
1018.67 1018.53 1018.40 1018.31 1018.08 1017.88 1017.65 1017.33 1016.98 1017.10 1017.13 1017.02 1016.88 1016.93 1017.04 1017.14 1015.52 1014.66 1014.63 1014.73 1014.95 1014.70 1015.04 1015.49 1015.81 1016.10 1016.10 1016.10 1016.12 1016.38 1015.98 1015.75 1015.44 1015.37 1015.27 1015.07 1014.89 1014.89 1013.68 1013.04 1013.22 1013.65 1013.96 1014.26 1014.68
1018.44 1018.42 1018.26 1018.14 1017.96 1017.79 1017.67 1017.35 1017.12 1016.87 1016.98 1017.03 1016.92 1016.95 1016.94 1016.86 1014.65 1014.70 1014.91 1015.04 1015.14 1015.25 1015.06 1015.22 1015.45 1015.69 1015.87 1015.87 1015.95 1015.58 1015.64 1015.51 1015.28 1015.07 1015.08 1015.12 1014.85 1014.83 1012.97 1012.75 1013.08 1013.46 1013.70 1013.96 1014.16
1018.08 1017.99 1018.15 1018.01 1018.03 1017.88 1017.69 1017.42 1017.00 1016.59 1016.83 1016.89 1016.92 1017.04 1016.74 1015.34 1014.79 1014.74 1015.02 1015.05 1015.06 1015.14 1015.47 1015.07 1015.05 1015.41 1015.74 1015.77 1015.61 1015.55 1015.57 1015.30 1014.89 1014.80 1014.82 1014.83 1014.64 1013.82 1012.83 1012.95 1013.10 1013.45 1013.54 1013.76 1013.91
1017.81 1017.77 1017.74 1017.78 1017.82 1017.77 1017.59 1017.35 1016.95 1016.55 1016.69 1016.83 1016.89 1017.21 1016.22 1014.57 1014.74 1014.83 1014.96 1015.20 1015.15 1014.95 1015.15 1015.16 1015.05 1015.26 1015.59 1015.81 1015.83 1015.92 1015.76 1015.46 1014.51 1014.69 1014.62 1014.65 1013.66 1012.61 1012.54 1012.72 1012.88 1013.11 1013.45 1013.51 1013.56
1017.46 1017.49 1017.45 1017.45 1017.51 1017.49 1017.54 1017.22 1016.82 1016.29 1016.62 1016.58 1016.95 1017.10 1015.86 1014.67 1014.62 1014.49 1014.82 1015.01 1015.18 1015.12 1015.02 1015.25 1015.45 1015.94 1015.94 1016.29 1016.59 1016.35 1016.08 1015.49 1014.62 1014.51 1014.54 1014.60 1013.42 1012.46 1012.46 1012.70 1012.70 1012.75 1013.12 1013.37 1013.46
1016.88 1016.98 1017.11 1017.09 1017.15 1017.15 1017.29 1016.95 1016.62 1016.34 1016.70 1016.79 1016.82 1017.08 1015.29 1014.16 1014.09 1014.28 1014.52 1014.97 1015.07 1015.28 1015.50 1015.73 1016.50 1016.81 1016.99 1016.68 1016.67 1016.17 1016.11 1015.49 1015.04 1014.64 1014.63 1014.46 1013.49 1012.46 1012.33 1012.54 1012.38 1012.42 1012.61 1013.01 1013.43
1016.31 1016.41 1016.52 1016.59 1016.83 1016.98 1017.47 1017.30 1017.14 1016.92 1016.56 1015.53 1015.34 1014.67 1014.11 1014.04 1014.00 1014.37 1014.16 1014.85 1015.11 1015.42 1016.03 1016.17 1016.97 1016.97 1016.64 1016.07 1015.82 1015.63 1015.60 1015.33 1014.76 1014.52 1014.65 1014.18 1013.54 1012.64 1011.99 1012.03 1011.95 1011.82 1012.15 1012.45 1012.90
1015.57 1015.79 1015.97 1016.15 1016.30 1016.65 1017.33 1017.34 1016.76 1016.84 1015.98 1015.07 1014.74 1014.46 1014.11 1014.10 1013.96 1014.23 1014.20 1014.69 1015.33 1015.84 1016.14 1016.94 1016.40 1016.30 1016.61 1016.70 1016.38 1015.99 1015.74 1015.34 1014.77 1014.55 1014.75 1014.19 1013.25 1012.04 1011.50 1011.03 1011.03 1011.39 1011.73 1012.20 1012.81
1014.79 1015.13 1015.39 1015.67 1015.88 1016.21 1016.79 1016.69 1016.24 1016.50 1015.91 1014.17 1013.50 1013.31 1013.54 1013.79 1013.03 1013.52 1014.12 1014.34 1015.11 1016.17 1016.11 1016.01 1015.49 1015.68 1016.12 1016.57 1016.83 1016.44 1016.10 1015.66 1015.30 1014.90 1014.85 1014.67 1012.98 1011.55 1010.70 1010.65 1010.84 1011.28 1011.74 1012.28 1012.72
1014.09 1014.48 1014.92 1015.31 1015.95 1016.00 1016.36 1016.53 1016.54 1016.97 1016.01 1013.38 1012.48 1011.46 1012.22 1012.90 1012.66 1012.11 1012.94 1013.77 1014.65 1015.39 1016.58 1016.30 1015.16 1015.79 1016.30 1016.17 1016.52 1016.67 1015.84 1015.80 1015.91 1016.15 1016.03 1015.36 1013.88 1011.81 1010.75 1010.55 1010.70 1011.27 1011.92 1012.43 1012.97
1013.30 1013.80 1014.20 1014.72 1014.87 1015.19 1015.48 1015.67 1016.67 1016.93 1015.62 1010.83 1010.51 1009.94 1010.16 1011.10 1011.22 1011.89 1012.05 1012.86 1013.69 1014.65 1015.67 1015.07 1015.15 1015.23 1015.65 1015.14 1015.68 1016.08 1015.91 1016.14 1016.46 1016.76 1016.85 1016.05 1015.69 1011.65 1011.04 1010.57 1010.13 1010.91 1011.72 1012.38 1012.93
1012.55 1012.93 1013.47 1013.97 1014.41 1014.39 1014.74 1015.62 1016.66 1016.38 1013.04 1009.92 1009.61 1009.73 1010.28 1010.12 1010.99 1011.93 1012.14 1012.42 1013.18 1014.24 1014.85 1014.99 1014.76 1014.63 1014.33 1014.73 1014.96 1015.90 1016.49 1017.01 1017.55 1017.95 1017.70 1016.11 1015.41 1012.08 1010.67 1009.59 1009.59 1010.39 1011.39 1012.27 1013.02
1011.65 1012.02 1012.60 1013.08 1013.13 1013.85 1014.37 1015.17 1014.98 1012.42 1010.11 1009.49 1008.59 1008.85 1009.04 1009.52 1010.62 1011.01 1011.60 1012.15 1012.15 1013.78 1014.13 1014.68 1014.67 1014.34 1014.33 1014.78 1015.48 1015.44 1016.49 1018.13 1018.82 1019.14 1017.68 1016.50 1015.68 1011.14 1009.76 1009.09 1009.41 1010.20 1011.15 1012.12 1013.01
1010.56 1010.98 1011.35 1011.91 1012.66 1013.30 1014.10 1013.70 1011.35 1009.76 1008.89 1008.08 1008.09 1008.46 1008.56 1008.92 1009.67 1009.98 1010.93 1011.20 1011.03 1011.24 1012.60 1013.62 1014.34 1013.69 1013.58 1013.49 1013.90 1015.11 1015.19 1016.50 1017.65 1018.82 1017.59 1016.74 1014.24 1010.50 1009.34 1009.03 1009.24 1009.84 1010.83 1012.08 1013.04
1009.63 1009.88 1010.49 1010.76 1011.61 1012.22 1012.29 1009.58 1007.45 1007.91 1007.80 1007.95 1008.13 1007.91 1008.02 1007.69 1008.17 1009.26 1009.33 1009.62 1009.93 1009.45 1010.55 1012.13 1012.99 1012.68 1012.86 1012.62 1012.88 1014.72 1014.77 1014.64 1016.13 1018.66 1017.72 1015.37 1012.83 1010.23 1009.25 1009.33 1009.63 1010.21 1011.07 1011.89 1012.65
1008.44 1008.88 1009.03 1009.65 1010.45 1010.79 1009.40 1007.44 1007.05 1007.34 1006.78 1007.29 1006.59 1006.68 1006.82 1006.66 1007.39 1007.94 1008.77 1007.94 1008.99 1009.44 1009.66 1010.43 1012.33 1013.20 1013.15 1013.18 1013.01 1012.64 1013.10 1014.38 1015.44 1016.81 1016.61 1014.45 1013.09 1010.53 1009.46 1009.05 1009.78 1010.39 1011.00 1011.78 1012.34
1007.59 1006.69 1007.08 1008.30 1009.43 1008.39 1005.31 1005.75 1006.61 1006.64 1006.37 1005.82 1005.66 1005.77 1005.51 1006.00 1006.29 1006.51 1006.66 1007.03 1007.12 1008.08 1009.55 1009.77 1010.58 1013.61 1013.59 1013.15 1012.62 1013.04 1012.83 1012.97 1013.44 1014.11 1014.27 1014.04 1011.21 1008.92 1008.46 1008.55 1009.18 1009.96 1010.57 1011.37 1012.03
1006.02 1004.83 1005.53 1007.09 1007.30 1005.12 1004.52 1004.95 1005.47 1005.94 1005.80 1005.10 1004.86 1005.15 1004.74 1005.01 1005.55 1005.98 1005.56 1005.40 1005.74 1006.95 1008.09 1009.02 1010.35 1012.57 1012.77 1012.97 1012.65 1012.13 1011.70 1011.58 1012.11 1013.03 1013.33 1012.80 1010.05 1008.50 1008.84 1008.89 1009.11 1009.85 1010.63 1011.24 1011.84
1004.22 1003.98 1004.73 1005.46 1004.41 1003.06 1004.27 1004.10 1004.07 1004.84 1004.85 1004.78 1004.37 1004.39 1004.47 1004.43 1005.03 1004.83 1005.05 1005.24 1005.64 1006.25 1006.39 1007.47 1009.07 1011.83 1012.88 1013.07 1012.90 1011.84 1010.94 1010.95 1011.07 1011.33 1011.56 1011.65 1008.83 1008.54 1008.91 1009.15 1009.41 1009.88 1010.75 1011.30 1011.93
1003.88 1003.26 1003.53 1003.59 1002.27 1002.64 1003.19 1003.67 1003.26 1003.51 1003.76 1003.99 1004.13 1004.94 1004.48 1004.30 1004.25 1004.45 1004.78 1005.28 1005.50 1005.90 1006.33 1006.56 1007.70 1007.91 1008.27 1008.48 1009.64 1011.26 1010.26 1010.27 1009.98 1010.32 1009.68 1009.53 1008.40 1008.71 1009.00 1009.43 1009.80 1010.20 1010.79 1011.46 1012.12
1000.94 1001.58 1000.57 1000.44 1000.34 1001.77 1002.39 1002.61 1003.39 1002.68 1003.48 1003.62 1003.27 1003.56 1004.14 1004.25 1004.15 1004.10 1004.37 1005.43 1005.66 1005.36 1006.10 1006.27 1007.09 1007.81 1008.18 1008.30 1008.42 1008.45 1009.02 1009.67 1009.72 1008.54 1009.18 1007.38 1008.31 1008.54 1008.57 1008.79 1009.56 1010.20 1011.07 1011.85 1012.33
999.37 1000.20 1000.69 999.29 999.63 1000.58 1001.53 1001.72 1002.62 1003.00 1002.83 1002.78 1002.63 1002.97 1003.75 1003.54 1003.25 1003.69 1004.34 1004.58 1004.98 1005.44 1005.04 1005.74 1006.31 1007.11 1008.39 1008.12 1008.19 1008.33 1008.15 1008.41 1007.81 1007.42 1007.73 1007.32 1007.36 1007.50 1007.96 1008.46 1009.64 1010.11 1010.88 1011.56 1012.09
998.56 998.89 999.44 999.81 999.57 1000.11 1000.24 1000.66 1000.97 1001.59 1002.40 1002.86 1002.60 1002.60 1002.55 1002.46 1003.73 1004.65 1005.29 1005.21 1004.83 1003.71 1004.58 1005.25 1005.98 1007.15 1007.90 1008.12 1008.41 1008.35 1006.27 1006.88 1006.91 1007.00 1006.05 1006.84 1002.74 1006.22 1007.48 1007.67 1008.12 1009.05 1009.87 1010.64 1011.64
Wind_Speed
15 16 17 9 5 4 5 5 4 6 6 5 6 7 8 9 8 1 6 7 4 4 4 3 3 3 3 3 3 3 4 3 5 7 4 2 1 1 2 2 3 3 1 1 9
13 13 15 16 18 8 6 6 6 5 6 5 5 7 8 8 2 6 8 4 6 6 4 5 4 5 3 2 1 4 4 10 4 4 3 1 1 2 2 2 3 3 3 4 8
12 13 12 14 14 16 10 8 7 6 5 4 5 6 7 4 3 5 2 9 5 7 3 3 4 4 4 3 4 4 6 4 3 4 2 2 2 2 2 5 9 6 4 6 7
11 12 13 12 13 14 16 14 8 7 7 4 3 4 7 0 3 2 5 8 8 7 5 5 3 5 4 6 5 2 6 4 3 1 1 3 3 4 7 8 3 7 3 7 10
12 10 10 12 13 14 16 18 10 8 7 5 2 3 2 1 8 2 4 7 3 5 7 5 4 4 5 4 6 4 4 4 5 5 5 1 7 7 10 12 8 6 5 8 10
13 12 11 10 12 14 15 16 17 9 7 5 2 1 3 5 0 3 5 3 3 2 5 6 6 5 3 3 5 4 3 5 6 6 5 5 4 3 7 0 1 4 9 7 10
13 12 13 10 10 12 15 16 17 8 7 5 2 1 2 12 2 4 4 2 4 3 3 3 4 4 2 1 2 0 4 5 7 4 7 6 7 11 6 3 8 6 6 8 8
14 12 10 11 10 11 14 14 18 16 7 4 2 1 8 0 3 4 3 2 1 2 0 3 3 4 3 1 4 1 2 1 1 6 2 5 10 3 3 6 8 5 6 6 8
15 12 12 9 10 11 12 15 16 9 4 4 2 2 8 3 3 4 3 4 4 1 1 2 2 2 3 5 4 2 4 5 7 6 3 4 7 2 2 3 3 4 5 6 6
15 15 11 11 10 9 11 15 9 7 2 2 1 1 4 5 4 5 4 5 3 4 4 4 5 2 3 5 7 7 4 4 5 2 3 3 13 13 7 6 10 8 7 7 8
18 17 14 12 9 11 3 4 2 2 5 8 4 4 3 2 4 2 5 6 3 4 5 3 5 8 12 9 2 4 4 3 3 2 3 7 11 16 10 6 10 10 8 9 8
18 16 17 14 12 12 4 3 3 2 7 16 8 6 5 4 4 4 7 8 5 5 7 4 9 9 4 4 3 1 3 4 4 1 3 5 13 14 9 8 7 7 7 7 5
17 15 16 16 14 7 7 7 3 12 5 7 11 9 6 7 7 11 11 6 5 5 7 8 4 9 8 6 5 3 5 3 4 3 1 6 9 6 3 3 3 3 3 2 7
19 16 15 15 12 5 4 9 2 6 6 9 10 11 9 7 8 8 10 7 4 10 6 7 5 7 6 6 8 6 9 7 4 2 5 2 7 6 3 6 5 5 4 5 5
19 18 17 18 5 7 7 11 7 4 6 9 11 5 13 16 11 7 5 4 10 9 8 9 10 8 6 8 9 6 3 7 2 1 4 1 2 9 1 7 8 8 7 6 7
22 20 19 12 8 6 7 8 4 9 15 5 9 14 12 14 3 6 7 3 5 6 2 4 1 4 7 4 12 9 6 7 4 3 3 7 8 6 6 9 3 5 7 8 7
26 23 18 10 12 9 5 6 9 15 2 7 9 10 19 13 10 9 16 14 11 9 9 3 5 3 4 7 3 3 7 3 4 3 8 4 2 8 7 5 4 8 9 8 7
23 24 18 13 10 12 10 10 18 16 18 4 8 13 21 16 16 14 17 18 18 2 6 11 6 12 6 7 11 8 8 8 9 6 3 2 10 9 5 6 3 6 8 7 7
27 12 12 12 12 13 11 21 24 10 27 8 8 11 15 16 9 14 17 19 19 20 15 10 8 3 2 6 12 7 8 6 8 2 3 6 8 11 6 5 5 6 7 9 9
12 13 15 16 15 14 15 30 21 12 17 15 20 15 19 20 12 20 17 18 10 20 0 9 4 2 1 1 4 6 9 4 2 4 5 5 6 7 5 10 7 8 8 7 7
14 9 13 15 14 16 19 17 24 11 11 32 25 15 18 15 18 19 17 9 27 22 12 6 5 1 4 7 11 5 4 2 5 6 7 2 8 9 11 8 14 10 9 9 8
14 14 9 15 20 17 21 19 20 17 23 11 5 12 15 24 17 21 22 17 19 19 25 6 6 5 7 3 2 2 3 7 6 7 2 4 10 1 5 5 8 9 7 6 6
12 5 6 17 24 17 16 7 23 25 19 16 8 9 8 17 17 22 22 9 6 20 22 16 6 6 3 3 3 7 10 10 3 3 10 8 13 1 3 4 6 9 8 7 7
7 9 8 12 15 23 27 25 17 16 21 22 13 7 8 14 15 18 16 4 10 14 11 19 3 17 18 9 10 10 10 9 10 11 11 10 10 4 5 7 6 7 7 7 7
8 4 4 16 17 19 20 12 22 14 14 18 16 17 13 19 22 14 24 5 5 15 12 13 16 11 4 4 5 9 20 18 15 23 15 18 11 7 10 12 7 7 6 7 6
6 6 0 3 14 18 25 20 21 19 10 20 14 18 14 14 15 19 15 13 10 9 21 7 4 5 7 3 5 3 11 19 25 21 21 5 8 8 2 8 7 8 9 8 8
3 2 6 6 11 15 14 17 24 21 15 8 18 17 19 21 10 6 5 10 7 17 21 11 7 4 11 7 8 3 19 20 15 18 24 10 31 9 7 10 15 15 15 12 8
Wind_Direction
2 8 7 346 293 274 274 275 275 296 300 321 330 326 324 323 327 341 246 209 158 200 114 111 68 93 79 89 81 140 69 223 239 168 239 354 264 308 297 307 316 217 168 97 127
344 349 359 358 7 305 274 269 274 269 289 310 324 321 325 335 303 251 255 222 216 148 114 146 150 127 89 115 52 106 148 218 211 203 243 229 207 278 19 24 271 284 99 106 144
338 332 335 348 352 348 323 267 258 263 270 290 313 321 325 349 324 254 269 223 191 153 119 140 117 126 135 135 190 166 203 229 264 233 229 262 255 210 184 257 221 215 208 160 175
322 328 338 332 338 341 340 333 262 259 257 262 295 326 323 336 283 334 335 169 145 131 112 111 118 137 146 180 163 201 232 219 291 285 163 248 310 270 199 230 198 204 198 164 185
306 308 321 327 321 329 335 336 284 250 256 258 277 336 34 300 251 345 79 100 83 120 142 137 138 140 186 188 129 204 236 179 245 266 257 326 254 252 256 245 254 248 197 202 192
309 301 293 311 318 320 317 319 322 247 248 254 253 40 118 255 148 113 125 121 132 106 148 138 178 194 176 192 181 194 225 259 261 234 231 219 230 147 265 166 196 206 227 215 195
301 302 287 279 300 311 316 313 322 289 240 242 231 82 133 237 56 127 145 194 169 150 162 194 154 140 135 248 284 288 310 306 225 222 226 173 274 231 231 211 284 251 238 226 221
290 295 303 276 291 306 315 308 318 316 203 201 155 87 250 189 140 138 156 94 151 153 153 196 152 122 144 244 7 277 63 286 198 157 224 158 263 260 7 178 248 265 223 229 225
271 276 283 274 275 297 311 311 310 285 155 139 99 156 260 161 166 186 162 161 148 141 92 85 55 111 97 94 4 352 243 213 310 192 144 185 265 250 86 67 286 278 255 239 229
265 264 256 267 250 278 307 307 296 103 139 129 239 270 227 218 167 148 156 155 148 130 75 80 52 92 27 117 211 206 225 246 256 204 205 217 262 275 265 262 262 261 252 231 231
264 261 257 248 239 260 343 346 217 202 217 202 180 261 127 117 138 183 149 131 106 104 155 184 153 203 212 207 113 140 188 242 237 254 237 233 270 273 279 248 261 257 239 237 238
263 259 252 250 242 242 153 205 295 350 262 238 226 252 253 222 129 186 142 147 148 182 128 95 235 198 162 190 201 149 170 238 271 214 202 319 281 260 245 245 214 246 248 244 177
254 257 260 247 247 237 197 213 179 14 265 239 209 201 185 190 201 182 155 143 140 162 195 170 200 178 153 160 194 241 212 239 233 336 219 325 286 286 269 239 213 229 248 229 184
256 251 251 248 249 150 203 226 337 82 255 234 192 221 176 160 245 152 175 146 164 177 156 251 194 134 166 183 146 233 205 211 229 62 242 3 283 293 259 269 225 215 194 189 167
246 250 246 234 154 161 172 203 127 151 241 221 178 186 161 176 138 222 183 81 162 163 147 234 176 157 176 194 163 221 138 178 155 199 356 257 292 268 300 272 232 210 199 187 185
246 242 242 244 218 171 175 127 139 203 223 212 144 172 157 189 108 107 165 112 139 127 234 244 275 187 195 143 167 155 86 58 64 88 295 199 186 258 196 214 208 184 188 185 181
251 237 234 218 221 163 201 161 197 211 219 213 180 173 177 174 159 157 175 180 166 147 197 159 211 205 166 93 64 125 114 2 357 11 227 343 275 260 260 229 218 194 189 189 179
249 243 235 228 198 165 202 208 215 195 208 98 156 169 193 160 199 173 160 193 213 161 112 179 252 168 182 181 169 187 165 162 194 200 233 61 231 246 238 242 193 170 171 166 181
242 235 230 225 203 191 209 222 220 192 198 161 154 178 197 191 163 175 191 199 197 188 180 168 236 20 273 159 142 196 211 156 106 53 53 215 284 288 220 231 200 165 158 178 184
235 230 229 221 199 206 217 229 224 188 205 212 202 181 190 190 172 187 174 199 200 207 175 193 113 353 141 348 356 165 158 98 9 152 248 267 279 249 252 223 199 200 196 188 179
232 219 220 200 201 218 220 214 211 223 220 204 218 196 200 186 196 191 192 211 192 190 185 147 120 353 126 213 175 152 183 174 134 160 179 225 256 217 224 199 197 199 191 183 180
238 209 185 170 221 220 215 221 204 197 223 229 196 204 204 191 195 199 205 205 194 160 192 184 112 148 189 271 307 16 186 175 170 218 248 143 262 298 269 265 185 182 177 178 176
242 230 179 185 220 229 207 231 200 203 220 216 216 215 203 198 204 201 212 181 166 177 179 177 184 113 69 341 232 209 192 182 107 83 196 155 250 8 304 242 208 160 167 168 162
214 203 195 211 207 207 207 214 217 194 211 215 194 213 214 219 207 188 212 160 176 195 190 167 136 201 197 189 133 200 196 205 203 212 211 224 238 252 221 214 199 178 166 161 167
180 235 192 194 197 195 207 183 218 222 192 211 202 209 201 221 209 209 202 143 187 187 191 172 210 201 214 136 167 189 194 190 200 217 205 237 219 220 215 210 196 169 157 157 170
171 169 186 283 174 173 198 208 211 219 229 215 219 198 208 230 212 207 196 180 184 202 188 184 234 125 215 86 93 114 191 196 209 221 230 166 267 225 138 119 171 195 174 184 189
205 69 120 199 178 181 184 192 213 201 213 290 203 216 234 234 207 219 358 330 286 170 191 176 137 141 220 129 89 287 208 190 210 216 221 210 229 160 194 191 187 195 191 184 184